Troy, AL

11:41 AM CDT on May 27, 2017 (GMT -0500)
Troy Municipal

Weather History for KTOI - May, 2013

Change the Weather History Date:

Monday, May 13, 2013

  Actual Average Record
Temperature  
Mean Temperature 59 °F 70 °F  
Max Temperature 76 °F 84 °F 91 °F (2007)
Min Temperature 42 °F 58 °F 42 °F (2013)
Degree Days  
Heating Degree Days 6    
Cooling Degree Days 0 6  
Month to date cooling degree days 24 63  
Year to date cooling degree days 119 140  
Growing Degree Days 8 (Base 50)    
Moisture  
Dew Point 40 °F    
Average Humidity 57    
Maximum Humidity 92    
Minimum Humidity 21    
Precipitation  
Precipitation 0.00 in 0.09 in 2.42 in (2012)
Month to date precipitation 1.14 1.21  
Year to date precipitation 22.89 20.36  
Sea Level Pressure  
Sea Level Pressure 30.20 in    
Wind  
Wind Speed 4 mph (NNW)    
Max Wind Speed 17 mph    
Max Gust Speed 22 mph    
Visibility 10 miles    
Events      
T = Trace of Precipitation, MM = Missing Value Source: NWS Daily Summary

Daily Weather History Graph

Daily Weather History Graph

Search for Another Location

Airport or City:

Trip Planner

Search our weather history database for the weather conditions in past years. The results will help you decide how hot, cold, wet, or windy it might be!

Date:

Astronomy

May. 13, 2013 Rise Set
Actual Time 5:48 AM CDT 7:32 PM CDT
Civil Twilight 5:21 AM CDT 7:59 PM CDT
Nautical Twilight 4:49 AM CDT 8:31 PM CDT
Astronomical Twilight 4:15 AM CDT 9:06 PM CDT
Moon 8:34 AM CDT (5/13) 10:41 PM CDT (5/13)
Length of Visible Light 14h 38m
Length of Day
13h 44m
Waxing Crescent, 12% of the Moon is Illuminated
May 13
Waxing Crescent
May 17
First Quarter
May 24
Full
May 31
Last Quarter
Jun 8
New

Hourly Weather History & Observations

Time (CDT) Temp. Dew Point Humidity Pressure Visibility Wind Dir Wind Speed Gust Speed Precip Events Conditions
12:53 AM 53.1 °F 43.0 °F 69% 30.12 in 10.0 mi NNW 6.9 mph - N/A   Clear
1:53 AM 48.0 °F 43.0 °F 83% 30.14 in 10.0 mi Calm Calm - N/A   Clear
2:53 AM 46.9 °F 43.0 °F 86% 30.14 in 10.0 mi Calm Calm - N/A   Clear
3:53 AM 45.0 °F 42.1 °F 90% 30.16 in 10.0 mi Calm Calm - N/A   Clear
4:53 AM 45.0 °F 39.9 °F 82% 30.17 in 10.0 mi Calm Calm - N/A   Clear
5:53 AM 42.1 °F 39.0 °F 89% 30.20 in 10.0 mi Calm Calm - N/A   Clear
6:53 AM 46.9 °F 43.0 °F 86% 30.24 in 10.0 mi Calm Calm - N/A   Clear
7:53 AM 57.0 °F 45.0 °F 64% 30.25 in 10.0 mi Variable 5.8 mph - N/A   Clear
8:53 AM 62.1 °F 39.0 °F 43% 30.27 in 10.0 mi NNE 11.5 mph - N/A   Clear
9:53 AM 66.0 °F 36.0 °F 33% 30.27 in 10.0 mi North 6.9 mph - N/A   Clear
10:53 AM 69.1 °F 34.0 °F 27% 30.27 in 10.0 mi NE 12.7 mph 17.3 mph N/A   Clear
11:53 AM 70.0 °F 32.0 °F 25% 30.26 in 10.0 mi North 10.4 mph 16.1 mph N/A   Clear
12:53 PM 72.0 °F 32.0 °F 23% 30.25 in 10.0 mi Calm Calm - N/A   Clear
1:53 PM 73.0 °F 33.1 °F 23% 30.22 in 10.0 mi NW 6.9 mph 16.1 mph N/A   Clear
3:53 PM 75.0 °F 37.0 °F 25% 30.19 in 10.0 mi NW 6.9 mph 16.1 mph N/A   Clear
4:53 PM 75.0 °F 37.0 °F 25% 30.18 in 10.0 mi NW 10.4 mph 20.7 mph N/A   Clear
5:53 PM 73.9 °F 37.9 °F 27% 30.18 in 10.0 mi NW 10.4 mph - N/A   Clear
6:53 PM 71.1 °F 41.0 °F 34% 30.18 in 10.0 mi NW 4.6 mph - N/A   Clear
7:53 PM 64.0 °F 46.0 °F 52% 30.19 in 10.0 mi Calm Calm - N/A   Clear
8:53 PM 57.0 °F 46.0 °F 67% 30.19 in 10.0 mi Calm Calm - N/A   Clear
9:53 PM 55.9 °F 48.0 °F 75% 30.21 in 10.0 mi Calm Calm - N/A   Clear
10:53 PM 53.1 °F 46.9 °F 80% 30.21 in 10.0 mi Calm Calm - N/A   Clear
11:53 PM 52.0 °F 46.0 °F 80% 30.22 in 10.0 mi Calm Calm - N/A   Clear